This is the latest recevied weather packets stored in our database for station/object K3RUP-1. If no packets are shown the sender has not sent any weather packets the latest 10 day(s).
| Time | Temp. | Humidity | Pressure | Rain* | Wind** | Luminosity | Snow |
|---|---|---|---|---|---|---|---|
| 1777923873 | 23.89° C | 38% | 1010.2 hPa | 0 mm | - | 586 W/m² | - |
| 1777923568 | 23.89° C | 39% | 1010.5 hPa | 0 mm | - | 577 W/m² | - |
| 1777923266 | 23.89° C | 39% | 1010.5 hPa | 0 mm | - | 547 W/m² | - |
| 1777922965 | 23.33° C | 40% | 1010.4 hPa | 0 mm | - | 582 W/m² | - |
| 1777922661 | 23.33° C | 38% | 1010.8 hPa | 0 mm | - | 570 W/m² | - |
| 1777922360 | 23.89° C | 38% | 1010.6 hPa | 0 mm | - | 597 W/m² | - |
| 1777922058 | 23.89° C | 38% | 1010.5 hPa | 0 mm | - | 594 W/m² | - |
| 1777921753 | 23.33° C | 41% | 1010.7 hPa | 0 mm | - | 617 W/m² | - |
| 1777921449 | 23.89° C | 38% | 1010.7 hPa | 0 mm | - | 406 W/m² | - |
| 1777921146 | 23.89° C | 37% | 1011 hPa | 0 mm | - | 189 W/m² | - |
| 1777920843 | 23.89° C | 39% | 1010.9 hPa | 0 mm | - | 636 W/m² | - |
| 1777920539 | 23.89° C | 38% | 1011.4 hPa | 0 mm | - | 684 W/m² | - |
| 1777920235 | 23.89° C | 40% | 1011.2 hPa | 0 mm | - | 652 W/m² | - |
| 1777919931 | 23.33° C | 40% | 1011.4 hPa | 0 mm | - | 633 W/m² | - |
| 1777919629 | 23.33° C | 39% | 1011.5 hPa | 0 mm | - | 582 W/m² | - |
| 1777919326 | 23.89° C | 36% | 1011.4 hPa | 0 mm | - | 626 W/m² | - |
| 1777919023 | 23.89° C | 39% | 1011.3 hPa | 0 mm | - | 693 W/m² | - |
| 1777918720 | 22.78° C | 39% | 1011.7 hPa | 0 mm | - | 663 W/m² | - |
| 1777918417 | 23.33° C | 37% | 1011.7 hPa | 0 mm | - | 684 W/m² | - |
| 1777918116 | 23.33° C | 37% | 1011.6 hPa | 0 mm | - | 705 W/m² | - |
| 1777917814 | 23.89° C | 39% | 1011.7 hPa | 0 mm | - | 688 W/m² | - |
| 1777917512 | 23.89° C | 38% | 1012 hPa | 0 mm | - | 663 W/m² | - |
| 1777917208 | 23.33° C | 38% | 1011.8 hPa | 0 mm | - | 697 W/m² | - |
| 1777916907 | 23.89° C | 38% | 1011.8 hPa | 0 mm | - | 717 W/m² | - |
| 1777916604 | 22.78° C | 40% | 1011.7 hPa | 0 mm | - | 747 W/m² | - |
* Rain latest hour (hover to see other rain measurements)
** Current wind speed in m/s (hover to see current wind gust speed)